| time (UTC) | temp C | wind direction | speed KPH | gust KPH | rain 1hr cm | rain 24hr cm | rain mn cm | humidity % | barometer mb |
| 20260508005055 | 13 | 228 | 0.0 | 4.8 | 0.00 | 0.00 | 0.00 | 71 | 1007.2 |
| 20260508004551 | 13 | 211 | 0.0 | 3.2 | 0.00 | 0.00 | 0.00 | 70 | 1007.2 |
| 20260508004051 | 13 | 221 | 0.0 | 3.2 | 0.00 | 0.00 | 0.00 | 70 | 1007.1 |
| 20260508003550 | 13 | 215 | 0.0 | 1.6 | 0.00 | 0.00 | 0.00 | 70 | 1007.0 |
| 20260508003051 | 13 | 254 | 0.0 | 1.6 | 0.00 | 0.00 | 0.00 | 70 | 1006.9 |
| 20260508002550 | 13 | 222 | 0.0 | 3.2 | 0.00 | 0.00 | 0.00 | 69 | 1006.9 |
| 20260508002050 | 13 | 202 | 0.0 | 3.2 | 0.00 | 0.00 | 0.00 | 69 | 1006.9 |
| 20260508001551 | 13 | 201 | 0.0 | 6.4 | 0.00 | 0.00 | 0.00 | 68 | 1006.8 |
| 20260508001049 | 13 | 213 | 0.0 | 6.4 | 0.00 | 0.00 | 0.00 | 67 | 1006.7 |
| 20260508000550 | 14 | 215 | 0.0 | 0.0 | 0.00 | 0.00 | 0.00 | 67 | 1006.7 |
| 20260508000106 | 14 | 227 | 0.0 | 1.6 | 0.00 | 0.00 | 0.00 | 66 | 1006.7 |
| 20260507235553 | 14 | 230 | 0.0 | 3.2 | 0.00 | 0.00 | 0.00 | 66 | 1006.6 |
| 20260507235049 | 14 | 202 | 0.0 | 1.6 | 0.00 | 0.00 | 0.00 | 65 | 1006.4 |
| 20260507234550 | 14 | 219 | 0.0 | 0.0 | 0.00 | 0.00 | 0.00 | 65 | 1006.4 |
| 20260507234052 | 15 | 208 | 0.0 | 0.0 | 0.00 | 0.00 | 0.00 | 64 | 1006.3 |
| 20260507233549 | 15 | 213 | 0.0 | 1.6 | 0.00 | 0.00 | 0.00 | 64 | 1006.3 |
| 20260507233048 | 15 | 230 | 0.0 | 1.6 | 0.00 | 0.00 | 0.00 | 64 | 1006.3 |
| 20260507232549 | 15 | 223 | 0.0 | 0.0 | 0.00 | 0.00 | 0.00 | 64 | 1006.1 |
| 20260507232048 | 15 | 202 | 0.0 | 0.0 | 0.00 | 0.00 | 0.00 | 63 | 1006.1 |
| 20260507231555 | 15 | 208 | 0.0 | 1.6 | 0.00 | 0.00 | 0.00 | 62 | 1006.0 |
| 20260507231049 | 15 | 215 | 0.0 | 1.6 | 0.00 | 0.00 | 0.00 | 61 | 1006.0 |
| 20260507230551 | 16 | 189 | 0.0 | 1.6 | 0.00 | 0.00 | 0.00 | 60 | 1005.9 |
| 20260507230047 | 16 | 215 | 0.0 | 0.0 | 0.00 | 0.00 | 0.00 | 61 | 1005.9 |
| 20260507225547 | 16 | 216 | 0.0 | 0.0 | 0.00 | 0.00 | 0.00 | 59 | 1005.8 |
| 20260507225048 | 16 | 202 | 0.0 | 1.6 | 0.00 | 0.00 | 0.00 | 60 | 1005.7 |
| 20260507224550 | 16 | 202 | 0.0 | 1.6 | 0.00 | 0.00 | 0.00 | 57 | 1005.6 |
| 20260507224047 | 16 | 196 | 0.0 | 1.6 | 0.00 | 0.00 | 0.00 | 56 | 1005.5 |
| 20260507223549 | 16 | 183 | 0.0 | 3.2 | 0.00 | 0.00 | 0.00 | 56 | 1005.6 |
| 20260507223047 | 16 | 161 | 0.0 | 3.2 | 0.00 | 0.00 | 0.00 | 55 | 1005.5 |
| 20260507222547 | 16 | 147 | 0.0 | 0.0 | 0.00 | 0.00 | 0.00 | 54 | 1005.5 |
| 20260507222046 | 17 | 165 | 0.0 | 3.2 | 0.00 | 0.00 | 0.00 | 54 | 1005.5 |
| 20260507221547 | 17 | 159 | 0.0 | 3.2 | 0.00 | 0.00 | 0.00 | 55 | 1005.4 |
| 20260507221046 | 17 | 200 | 0.0 | 1.6 | 0.00 | 0.00 | 0.00 | 56 | 1005.4 |
| 20260507220546 | 16 | 164 | 0.0 | 3.2 | 0.00 | 0.00 | 0.00 | 54 | 1005.4 |
| 20260507220045 | 17 | 205 | 0.0 | 3.2 | 0.00 | 0.00 | 0.00 | 54 | 1005.3 |
| 20260507215546 | 17 | 161 | 0.0 | 0.0 | 0.00 | 0.00 | 0.00 | 56 | 1005.4 |
| 20260507215044 | 17 | 163 | 0.0 | 0.0 | 0.00 | 0.00 | 0.00 | 55 | 1005.3 |
| 20260507214548 | 17 | 156 | 0.0 | 6.4 | 0.00 | 0.00 | 0.00 | 56 | 1005.2 |
| 20260507214044 | 17 | 174 | 0.0 | 6.4 | 0.00 | 0.00 | 0.00 | 54 | 1005.2 |
| 20260507213544 | 17 | 150 | 0.0 | 3.2 | 0.00 | 0.00 | 0.00 | 55 | 1005.2 |
| 20260507213045 | 17 | 154 | 0.0 | 1.6 | 0.00 | 0.00 | 0.00 | 48 | 1005.2 |
| 20260507212544 | 17 | 134 | 0.0 | 1.6 | 0.00 | 0.00 | 0.00 | 49 | 1005.2 |
| 20260507212044 | 17 | 134 | 0.0 | 1.6 | 0.00 | 0.00 | 0.00 | 46 | 1005.3 |
| 20260507211554 | 18 | 105 | 0.0 | 3.2 | 0.00 | 0.00 | 0.00 | 45 | 1005.2 |
| 20260507211046 | 18 | 144 | 0.0 | 6.4 | 0.00 | 0.00 | 0.00 | 43 | 1005.2 |
| 20260507210542 | 18 | 94 | 0.0 | 6.4 | 0.00 | 0.00 | 0.00 | 46 | 1005.2 |
| 20260507210047 | 18 | 146 | 0.0 | 0.0 | 0.00 | 0.00 | 0.00 | 51 | 1005.3 |
| 20260507205542 | 18 | 104 | 0.0 | 0.0 | 0.00 | 0.00 | 0.00 | 45 | 1005.3 |
| 20260507205042 | 18 | 105 | 0.0 | 1.6 | 0.00 | 0.00 | 0.00 | 43 | 1005.3 |
| 20260507204542 | 18 | 294 | 0.0 | 4.8 | 0.00 | 0.00 | 0.00 | 43 | 1005.4 |
| 20260507204041 | 18 | 24 | 1.6 | 4.8 | 0.00 | 0.00 | 0.00 | 47 | 1005.4 |
| 20260507203541 | 18 | 30 | 0.0 | 4.8 | 0.00 | 0.00 | 0.00 | 44 | 1005.4 |
| 20260507203041 | 18 | 42 | 0.0 | 1.6 | 0.00 | 0.00 | 0.00 | 49 | 1005.4 |
| 20260507202543 | 18 | 92 | 0.0 | 0.0 | 0.00 | 0.00 | 0.00 | 48 | 1005.4 |
| 20260507202040 | 18 | 360 | 0.0 | 1.6 | 0.00 | 0.00 | 0.00 | 48 | 1005.4 |
| 20260507201540 | 18 | 225 | 0.0 | 4.8 | 0.00 | 0.00 | 0.00 | 46 | 1005.5 |
| 20260507201039 | 18 | 15 | 0.0 | 1.6 | 0.00 | 0.00 | 0.00 | 48 | 1005.4 |
| 20260507200539 | 18 | 71 | 0.0 | 0.0 | 0.00 | 0.00 | 0.00 | 48 | 1005.5 |
| 20260507200041 | 18 | 96 | 0.0 | 0.0 | 0.00 | 0.00 | 0.00 | 46 | 1005.5 |
| 20260507195537 | 17 | 340 | 0.0 | 0.0 | 0.00 | 0.00 | 0.00 | 47 | 1005.5 |
| 20260507195036 | 17 | 273 | 0.0 | 0.0 | 0.00 | 0.00 | 0.00 | 44 | 1005.6 |
| 20260507194538 | 17 | 319 | 0.0 | 0.0 | 0.00 | 0.00 | 0.00 | 49 | 1005.7 |
| 20260507194035 | 17 | 59 | 0.0 | 0.0 | 0.00 | 0.00 | 0.00 | 50 | 1005.8 |
| 20260507193535 | 18 | 92 | 0.0 | 1.6 | 0.00 | 0.00 | 0.00 | 46 | 1005.8 |
| 20260507193034 | 18 | 53 | 0.0 | 1.6 | 0.00 | 0.00 | 0.00 | 48 | 1005.9 |
| 20260507192534 | 18 | 31 | 0.0 | 1.6 | 0.00 | 0.00 | 0.00 | 47 | 1005.9 |
| 20260507192034 | 17 | 93 | 0.0 | 3.2 | 0.00 | 0.00 | 0.00 | 44 | 1006.0 |
| 20260507191532 | 18 | 17 | 0.0 | 6.4 | 0.00 | 0.00 | 0.00 | 47 | 1006.1 |
| 20260507191034 | 17 | 57 | 0.0 | 6.4 | 0.00 | 0.00 | 0.00 | 49 | 1006.3 |
| 20260507190530 | 17 | 41 | 0.0 | 0.0 | 0.00 | 0.00 | 0.00 | 45 | 1006.3 |
| 20260507190036 | 18 | 67 | 0.0 | 1.6 | 0.00 | 0.00 | 0.00 | 46 | 1006.4 |
| 20260507185529 | 18 | 36 | 0.0 | 3.2 | 0.00 | 0.00 | 0.00 | 48 | 1006.4 |
| 20260507185028 | 17 | 284 | 0.0 | 1.6 | 0.00 | 0.00 | 0.00 | 47 | 1006.4 |
| 20260507184528 | 17 | 290 | 0.0 | 0.0 | 0.00 | 0.00 | 0.00 | 49 | 1006.4 |
| 20260507184032 | 17 | 244 | 0.0 | 1.6 | 0.00 | 0.00 | 0.00 | 52 | 1006.5 |
| 20260507183530 | 17 | 56 | 0.0 | 1.6 | 0.00 | 0.00 | 0.00 | 46 | 1006.6 |
| 20260507183026 | 17 | 284 | 0.0 | 1.6 | 0.00 | 0.00 | 0.00 | 49 | 1006.6 |
| 20260507182526 | 17 | 12 | 0.0 | 1.6 | 0.00 | 0.00 | 0.00 | 49 | 1006.6 |
| 20260507182026 | 16 | 43 | 0.0 | 0.0 | 0.00 | 0.00 | 0.00 | 47 | 1006.6 |
| 20260507181525 | 17 | 338 | 0.0 | 1.6 | 0.00 | 0.00 | 0.00 | 45 | 1006.8 |
| 20260507181024 | 17 | 290 | 0.0 | 1.6 | 0.00 | 0.00 | 0.00 | 47 | 1006.8 |
| 20260507180522 | 17 | 26 | 0.0 | 1.6 | 0.00 | 0.00 | 0.00 | 48 | 1006.9 |
| 20260507180021 | 17 | 5 | 0.0 | 1.6 | 0.00 | 0.00 | 0.00 | 49 | 1006.9 |
| 20260507175522 | 16 | 11 | 0.0 | 4.8 | 0.00 | 0.00 | 0.00 | 51 | 1006.9 |
| 20260507175018 | 16 | 20 | 0.0 | 4.8 | 0.00 | 0.00 | 0.00 | 51 | 1007.1 |
| 20260507174538 | 16 | 26 | 0.0 | 3.2 | 0.00 | 0.00 | 0.00 | 52 | 1007.2 |
| 20260507174018 | 16 | 230 | 0.0 | 1.6 | 0.00 | 0.00 | 0.00 | 51 | 1007.4 |
| 20260507173518 | 16 | 28 | 0.0 | 1.6 | 0.00 | 0.00 | 0.00 | 52 | 1007.5 |
| 20260507173021 | 15 | 313 | 0.0 | 1.6 | 0.00 | 0.00 | 0.00 | 48 | 1007.6 |
| 20260507172515 | 15 | 20 | 0.0 | 1.6 | 0.00 | 0.00 | 0.00 | 51 | 1007.6 |
| 20260507172019 | 15 | 286 | 0.0 | 1.6 | 0.00 | 0.00 | 0.00 | 52 | 1007.5 |
| 20260507171518 | 15 | 292 | 0.0 | 0.0 | 0.00 | 0.00 | 0.00 | 52 | 1007.6 |
| 20260507171013 | 15 | 287 | 0.0 | 6.4 | 0.00 | 0.00 | 0.00 | 48 | 1007.8 |
| 20260507170515 | 15 | 34 | 0.0 | 6.4 | 0.00 | 0.00 | 0.00 | 49 | 1007.9 |
| 20260507170012 | 15 | 29 | 0.0 | 3.2 | 0.00 | 0.00 | 0.00 | 54 | 1007.9 |
| 20260507165518 | 15 | 56 | 0.0 | 0.0 | 0.00 | 0.00 | 0.00 | 55 | 1007.9 |
| 20260507165012 | 15 | 225 | 0.0 | 1.6 | 0.00 | 0.00 | 0.00 | 49 | 1008.0 |
| 20260507164511 | 15 | 269 | 0.0 | 1.6 | 0.00 | 0.00 | 0.00 | 55 | 1008.1 |
| 20260507164011 | 15 | 327 | 0.0 | 3.2 | 0.00 | 0.00 | 0.00 | 51 | 1008.1 |
| 20260507163511 | 15 | 333 | 0.0 | 3.2 | 0.00 | 0.00 | 0.00 | 56 | 1008.3 |
| 20260507163009 | 15 | 288 | 0.0 | 1.6 | 0.00 | 0.00 | 0.00 | 55 | 1008.3 |
| 20260507162511 | 15 | 308 | 0.0 | 4.8 | 0.00 | 0.00 | 0.00 | 53 | 1008.4 |
| 20260507162009 | 14 | 271 | 0.0 | 4.8 | 0.00 | 0.00 | 0.00 | 55 | 1008.5 |
| 20260507161509 | 14 | 257 | 0.0 | 1.6 | 0.00 | 0.00 | 0.00 | 53 | 1008.4 |
| 20260507161013 | 15 | 323 | 0.0 | 3.2 | 0.00 | 0.00 | 0.00 | 53 | 1008.5 |
| 20260507160508 | 15 | 19 | 0.0 | 3.2 | 0.00 | 0.00 | 0.00 | 56 | 1008.6 |
| 20260507160011 | 15 | 304 | 0.0 | 3.2 | 0.00 | 0.00 | 0.00 | 51 | 1008.6 |
| 20260507155606 | 15 | 335 | 0.0 | 3.2 | 0.00 | 0.00 | 0.00 | 57 | 1008.7 |
| 20260507155005 | 14 | 18 | 0.0 | 11.3 | 0.00 | 0.00 | 0.00 | 55 | 1008.7 |
| 20260507154508 | 14 | 331 | 0.0 | 16.1 | 0.00 | 0.00 | 0.00 | 55 | 1008.7 |
| 20260507154007 | 14 | 332 | 0.0 | 16.1 | 0.00 | 0.00 | 0.00 | 54 | 1008.8 |
| 20260507153505 | 14 | 52 | 0.0 | 8.0 | 0.00 | 0.00 | 0.00 | 52 | 1009.0 |
| 20260507153004 | 14 | 360 | 0.0 | 0.0 | 0.00 | 0.00 | 0.00 | 59 | 1008.9 |
| 20260507152504 | 13 | 304 | 0.0 | 0.0 | 0.00 | 0.00 | 0.00 | 60 | 1009.1 |
| 20260507152004 | 13 | 259 | 0.0 | 9.7 | 0.00 | 0.00 | 0.00 | 59 | 1009.1 |
| 20260507151507 | 13 | 295 | 0.0 | 9.7 | 0.00 | 0.00 | 0.00 | 56 | 1009.1 |
| 20260507151003 | 13 | 287 | 0.0 | 1.6 | 0.00 | 0.00 | 0.00 | 53 | 1009.1 |
| 20260507150503 | 14 | 340 | 0.0 | 14.5 | 0.00 | 0.00 | 0.00 | 57 | 1009.2 |
| 20260507150003 | 14 | 11 | 1.6 | 14.5 | 0.00 | 0.00 | 0.00 | 55 | 1009.4 |
| 20260507145502 | 14 | 5 | 0.0 | 8.0 | 0.00 | 0.05 | 0.00 | 56 | 1009.4 |
| 20260507145004 | 14 | 56 | 0.0 | 8.0 | 0.00 | 0.05 | 0.00 | 57 | 1009.5 |
| 20260507144601 | 13 | 39 | 0.0 | 3.2 | 0.00 | 0.05 | 0.00 | 58 | 1009.6 |
| 20260507144101 | 12 | 39 | 0.0 | 0.0 | 0.00 | 0.05 | 0.00 | 62 | 1009.7 |
| 20260507143600 | 12 | 360 | 0.0 | 0.0 | 0.00 | 0.05 | 0.00 | 61 | 1009.6 |
| 20260507143119 | 12 | 336 | 0.0 | 0.0 | 0.00 | 0.05 | 0.00 | 60 | 1009.6 |
| 20260507142601 | 12 | 47 | 0.0 | 0.0 | 0.00 | 0.05 | 0.00 | 59 | 1009.8 |
| 20260507142502 | 12 | 54 | 0.0 | 0.0 | 0.00 | 0.05 | 0.00 | 59 | 1009.8 |
| 20260507142101 | 12 | 351 | 0.0 | 0.0 | 0.00 | 0.05 | 0.00 | 63 | 1009.7 |
| 20260507141630 | 12 | 11 | 0.0 | 0.0 | 0.00 | 0.05 | 0.00 | 63 | 1009.9 |
| 20260507141100 | 11 | 340 | 0.0 | 0.0 | 0.00 | 0.05 | 0.00 | 61 | 1009.8 |
| 20260507140559 | 11 | 342 | 0.0 | 0.0 | 0.00 | 0.05 | 0.00 | 60 | 1010.0 |
| 20260507140113 | 11 | 9 | 0.0 | 0.0 | 0.00 | 0.05 | 0.00 | 60 | 1010.2 |
| 20260507135559 | 11 | 340 | 0.0 | 0.0 | 0.00 | 0.18 | 0.00 | 59 | 1010.3 |
| 20260507135058 | 11 | 340 | 0.0 | 0.0 | 0.00 | 0.18 | 0.00 | 60 | 1010.3 |
| 20260507134607 | 11 | 313 | 0.0 | 0.0 | 0.00 | 0.18 | 0.00 | 62 | 1010.3 |
| 20260507134057 | 11 | 274 | 0.0 | 3.2 | 0.00 | 0.18 | 0.00 | 63 | 1010.3 |
| 20260507133557 | 11 | 277 | 0.0 | 3.2 | 0.00 | 0.18 | 0.00 | 63 | 1010.3 |
| 20260507133104 | 11 | 327 | 0.0 | 4.8 | 0.00 | 0.18 | 0.00 | 61 | 1010.1 |
| 20260507132556 | 11 | 338 | 0.0 | 1.6 | 0.00 | 0.18 | 0.00 | 61 | 1010.1 |
| 20260507132058 | 11 | 294 | 0.0 | 0.0 | 0.00 | 0.18 | 0.00 | 63 | 1010.2 |
| 20260507131619 | 11 | 310 | 0.0 | 3.2 | 0.00 | 0.18 | 0.00 | 63 | 1010.2 |
| 20260507131056 | 11 | 315 | 0.0 | 3.2 | 0.00 | 0.18 | 0.00 | 63 | 1010.2 |
| 20260507130555 | 11 | 296 | 0.0 | 0.0 | 0.00 | 0.18 | 0.00 | 63 | 1010.3 |
| 20260507130105 | 11 | 355 | 0.0 | 0.0 | 0.00 | 0.18 | 0.00 | 63 | 1010.4 |
| 20260507125555 | 11 | 300 | 0.0 | 0.0 | 0.00 | 0.30 | 0.00 | 63 | 1010.3 |
| 20260507125055 | 11 | 276 | 0.0 | 4.8 | 0.00 | 0.30 | 0.00 | 62 | 1010.2 |
| 20260507124602 | 11 | 331 | 0.0 | 4.8 | 0.00 | 0.30 | 0.00 | 62 | 1010.4 |
| 20260507124057 | 11 | 296 | 0.0 | 0.0 | 0.00 | 0.30 | 0.00 | 63 | 1010.3 |
| 20260507123554 | 11 | 331 | 0.0 | 0.0 | 0.00 | 0.30 | 0.00 | 64 | 1010.2 |
| 20260507123101 | 11 | 281 | 0.0 | 1.6 | 0.00 | 0.30 | 0.00 | 62 | 1010.2 |
| 20260507122553 | 11 | 306 | 0.0 | 1.6 | 0.00 | 0.30 | 0.00 | 63 | 1010.1 |
| 20260507122057 | 11 | 296 | 0.0 | 0.0 | 0.00 | 0.30 | 0.00 | 63 | 1010.1 |
| 20260507121557 | 11 | 360 | 0.0 | 1.6 | 0.00 | 0.30 | 0.00 | 64 | 1010.1 |
| 20260507121053 | 11 | 338 | 0.0 | 1.6 | 0.00 | 0.30 | 0.00 | 64 | 1010.1 |
| 20260507120552 | 11 | 344 | 0.0 | 0.0 | 0.00 | 0.30 | 0.00 | 64 | 1010.2 |
| 20260507120051 | 11 | 360 | 0.0 | 0.0 | 0.00 | 0.30 | 0.00 | 63 | 1010.2 |
| 20260507115550 | 11 | 355 | 0.0 | 0.0 | 0.00 | 0.38 | 0.00 | 63 | 1010.1 |
| 20260507115049 | 11 | 360 | 0.0 | 0.0 | 0.00 | 0.38 | 0.00 | 64 | 1010.0 |
| 20260507114548 | 11 | 342 | 0.0 | 0.0 | 0.00 | 0.38 | 0.00 | 63 | 1009.9 |
| 20260507114052 | 11 | 63 | 0.0 | 1.6 | 0.00 | 0.38 | 0.00 | 63 | 1009.9 |
| 20260507113547 | 11 | 347 | 0.0 | 0.0 | 0.00 | 0.38 | 0.00 | 63 | 1009.8 |
| 20260507113107 | 10 | 13 | 0.0 | 0.0 | 0.00 | 0.38 | 0.00 | 63 | 1009.7 |
| 20260507112548 | 10 | 30 | 0.0 | 0.0 | 0.00 | 0.38 | 0.00 | 64 | 1009.7 |
| 20260507112050 | 10 | 5 | 0.0 | 0.0 | 0.00 | 0.38 | 0.00 | 64 | 1009.7 |
| 20260507111546 | 11 | 34 | 0.0 | 0.0 | 0.00 | 0.38 | 0.00 | 65 | 1009.8 |
| 20260507111047 | 11 | 55 | 0.0 | 0.0 | 0.00 | 0.38 | 0.00 | 65 | 1009.8 |
| 20260507110545 | 11 | 5 | 0.0 | 0.0 | 0.00 | 0.38 | 0.00 | 64 | 1009.7 |
| 20260507110045 | 11 | 9 | 0.0 | 0.0 | 0.00 | 0.38 | 0.00 | 63 | 1009.7 |
| 20260507105544 | 11 | 332 | 0.0 | 0.0 | 0.00 | 0.38 | 0.00 | 63 | 1009.7 |
| 20260507105043 | 11 | 339 | 0.0 | 0.0 | 0.00 | 0.38 | 0.00 | 64 | 1009.6 |
| 20260507104554 | 11 | 318 | 0.0 | 0.0 | 0.00 | 0.38 | 0.00 | 64 | 1009.6 |
| 20260507104042 | 11 | 300 | 0.0 | 3.2 | 0.00 | 0.38 | 0.00 | 64 | 1009.5 |
| 20260507103542 | 11 | 343 | 0.0 | 3.2 | 0.00 | 0.38 | 0.00 | 65 | 1009.4 |
| 20260507103040 | 11 | 279 | 0.0 | 8.0 | 0.00 | 0.38 | 0.00 | 66 | 1009.3 |
| 20260507102539 | 11 | 328 | 0.0 | 8.0 | 0.00 | 0.38 | 0.00 | 67 | 1009.2 |
| 20260507102039 | 11 | 355 | 0.0 | 4.8 | 0.00 | 0.38 | 0.00 | 69 | 1009.1 |
| 20260507101538 | 11 | 5 | 0.0 | 0.0 | 0.00 | 0.38 | 0.00 | 70 | 1009.1 |
| 20260507101037 | 11 | 355 | 0.0 | 0.0 | 0.00 | 0.38 | 0.00 | 71 | 1009.1 |
| 20260507100536 | 11 | 28 | 0.0 | 0.0 | 0.00 | 0.38 | 0.00 | 72 | 1008.9 |
| 20260507100046 | 11 | 15 | 0.0 | 0.0 | 0.00 | 0.38 | 0.00 | 72 | 1008.9 |
| 20260507095538 | 11 | 346 | 0.0 | 0.0 | 0.00 | 0.38 | 0.00 | 72 | 1009.0 |
| 20260507095037 | 11 | 26 | 0.0 | 0.0 | 0.00 | 0.38 | 0.00 | 73 | 1008.8 |
| 20260507094538 | 11 | 340 | 0.0 | 1.6 | 0.00 | 0.38 | 0.00 | 74 | 1008.8 |
| 20260507094036 | 11 | 316 | 0.0 | 4.8 | 0.00 | 0.38 | 0.00 | 75 | 1008.8 |
| 20260507093533 | 11 | 360 | 0.0 | 1.6 | 0.00 | 0.38 | 0.00 | 77 | 1008.7 |
| 20260507093035 | 11 | 355 | 0.0 | 0.0 | 0.00 | 0.38 | 0.00 | 77 | 1008.8 |
| 20260507092532 | 11 | 355 | 0.0 | 3.2 | 0.00 | 0.38 | 0.00 | 78 | 1008.7 |
| 20260507092034 | 11 | 314 | 0.0 | 3.2 | 0.00 | 0.38 | 0.00 | 79 | 1008.6 |
| 20260507091536 | 11 | 315 | 0.0 | 0.0 | 0.00 | 0.38 | 0.00 | 80 | 1008.5 |
| 20260507091030 | 11 | 319 | 0.0 | 0.0 | 0.00 | 0.38 | 0.00 | 80 | 1008.5 |
| 20260507090530 | 11 | 5 | 0.0 | 0.0 | 0.00 | 0.38 | 0.00 | 80 | 1008.5 |
| 20260507090029 | 11 | 319 | 0.0 | 0.0 | 0.00 | 0.38 | 0.00 | 79 | 1008.7 |
| 20260507085529 | 11 | 313 | 0.0 | 0.0 | 0.00 | 0.38 | 0.00 | 79 | 1008.7 |
| 20260507085029 | 11 | 313 | 0.0 | 0.0 | 0.00 | 0.38 | 0.00 | 79 | 1008.7 |
| 20260507084545 | 11 | 284 | 0.0 | 0.0 | 0.00 | 0.38 | 0.00 | 79 | 1008.5 |
| 20260507084028 | 11 | 313 | 0.0 | 0.0 | 0.00 | 0.38 | 0.00 | 79 | 1008.4 |
| 20260507083530 | 11 | 320 | 0.0 | 1.6 | 0.00 | 0.38 | 0.00 | 79 | 1008.6 |
| 20260507083028 | 11 | 311 | 0.0 | 1.6 | 0.00 | 0.38 | 0.00 | 79 | 1008.4 |
| 20260507082528 | 11 | 329 | 0.0 | 0.0 | 0.00 | 0.38 | 0.00 | 79 | 1008.6 |
| 20260507082027 | 11 | 328 | 0.0 | 0.0 | 0.00 | 0.38 | 0.00 | 79 | 1008.5 |
| 20260507081527 | 11 | 311 | 0.0 | 0.0 | 0.00 | 0.38 | 0.00 | 79 | 1008.5 |
| 20260507081026 | 11 | 311 | 0.0 | 0.0 | 0.00 | 0.38 | 0.00 | 79 | 1008.4 |
| 20260507080525 | 11 | 298 | 0.0 | 0.0 | 0.00 | 0.38 | 0.00 | 79 | 1008.3 |
| 20260507080025 | 11 | 335 | 0.0 | 0.0 | 0.00 | 0.38 | 0.00 | 79 | 1008.1 |
| 20260507075525 | 11 | 19 | 0.0 | 0.0 | 0.00 | 0.38 | 0.00 | 79 | 1008.1 |
| 20260507075025 | 11 | 5 | 0.0 | 0.0 | 0.00 | 0.38 | 0.00 | 79 | 1008.0 |
| 20260507074525 | 11 | 323 | 0.0 | 0.0 | 0.00 | 0.38 | 0.00 | 79 | 1008.0 |
| 20260507074026 | 11 | 24 | 0.0 | 0.0 | 0.00 | 0.38 | 0.00 | 79 | 1008.0 |
| 20260507073524 | 11 | 30 | 0.0 | 0.0 | 0.00 | 0.38 | 0.00 | 79 | 1007.9 |
| 20260507073026 | 11 | 346 | 0.0 | 0.0 | 0.00 | 0.38 | 0.00 | 80 | 1007.9 |
| 20260507072524 | 11 | 5 | 0.0 | 0.0 | 0.00 | 0.38 | 0.00 | 80 | 1008.0 |
| 20260507072023 | 11 | 322 | 0.0 | 0.0 | 0.00 | 0.38 | 0.00 | 81 | 1007.9 |
| 20260507071523 | 11 | 23 | 0.0 | 0.0 | 0.00 | 0.38 | 0.00 | 81 | 1007.8 |
| 20260507071022 | 11 | 5 | 0.0 | 0.0 | 0.00 | 0.38 | 0.00 | 82 | 1007.9 |
| 20260507070522 | 11 | 22 | 0.0 | 0.0 | 0.00 | 0.38 | 0.00 | 83 | 1007.9 |
| 20260507070024 | 11 | 10 | 0.0 | 0.0 | 0.00 | 0.38 | 0.00 | 83 | 1007.8 |
| 20260507065522 | 11 | 5 | 0.0 | 0.0 | 0.00 | 0.38 | 0.00 | 84 | 1007.8 |
| 20260507065021 | 11 | 338 | 0.0 | 0.0 | 0.00 | 0.38 | 0.00 | 84 | 1007.9 |
| 20260507064521 | 12 | 348 | 0.0 | 0.0 | 0.00 | 0.38 | 0.00 | 84 | 1007.8 |
| 20260507064020 | 12 | 336 | 0.0 | 0.0 | 0.00 | 0.38 | 0.00 | 84 | 1008.0 |
| 20260507063520 | 12 | 311 | 0.0 | 0.0 | 0.00 | 0.38 | 0.00 | 84 | 1008.2 |
| 20260507063019 | 12 | 333 | 0.0 | 0.0 | 0.00 | 0.38 | 0.00 | 84 | 1008.2 |
| 20260507062519 | 12 | 328 | 0.0 | 0.0 | 0.00 | 0.38 | 0.00 | 84 | 1008.2 |
| 20260507062019 | 12 | 316 | 0.0 | 0.0 | 0.00 | 0.38 | 0.00 | 83 | 1008.3 |
| 20260507061519 | 12 | 291 | 0.0 | 0.0 | 0.00 | 0.38 | 0.00 | 83 | 1008.4 |
| 20260507061017 | 12 | 279 | 0.0 | 1.6 | 0.00 | 0.38 | 0.00 | 83 | 1008.4 |
| 20260507060516 | 12 | 276 | 0.0 | 1.6 | 0.00 | 0.38 | 0.00 | 84 | 1008.3 |
| 20260507060024 | 12 | 344 | 0.0 | 0.0 | 0.00 | 0.38 | 0.00 | 84 | 1008.2 |
| 20260507055516 | 12 | 302 | 0.0 | 0.0 | 0.00 | 0.38 | 0.00 | 85 | 1008.2 |
| 20260507055015 | 12 | 323 | 0.0 | 0.0 | 0.00 | 0.38 | 0.00 | 84 | 1008.3 |
| 20260507054515 | 12 | 334 | 0.0 | 0.0 | 0.00 | 0.38 | 0.00 | 84 | 1008.2 |
| 20260507054015 | 12 | 344 | 0.0 | 0.0 | 0.00 | 0.38 | 0.00 | 85 | 1008.2 |
| 20260507053517 | 12 | 311 | 0.0 | 0.0 | 0.00 | 0.38 | 0.00 | 85 | 1008.1 |
| 20260507053015 | 12 | 327 | 0.0 | 0.0 | 0.00 | 0.38 | 0.00 | 85 | 1008.0 |
| 20260507052514 | 12 | 296 | 0.0 | 0.0 | 0.00 | 0.38 | 0.00 | 84 | 1007.9 |
| 20260507052014 | 12 | 285 | 0.0 | 0.0 | 0.00 | 0.38 | 0.00 | 84 | 1008.1 |
| 20260507051514 | 12 | 317 | 0.0 | 0.0 | 0.00 | 0.38 | 0.00 | 84 | 1008.2 |
| 20260507051016 | 12 | 337 | 0.0 | 0.0 | 0.00 | 0.38 | 0.00 | 83 | 1008.1 |
| 20260507050512 | 12 | 342 | 0.0 | 1.6 | 0.00 | 0.38 | 0.00 | 83 | 1008.3 |
| 20260507050034 | 12 | 343 | 0.0 | 1.6 | 0.00 | 0.38 | 0.00 | 83 | 1008.1 |
| 20260507045511 | 13 | 341 | 0.0 | 8.0 | 0.00 | 0.38 | 0.00 | 83 | 1008.3 |
| 20260507045011 | 13 | 5 | 0.0 | 8.0 | 0.00 | 0.38 | 0.00 | 82 | 1008.2 |
| 20260507044519 | 13 | 307 | 0.0 | 1.6 | 0.00 | 0.38 | 0.00 | 82 | 1008.1 |
| 20260507044011 | 13 | 327 | 0.0 | 1.6 | 0.00 | 0.38 | 0.00 | 82 | 1007.8 |
| 20260507043509 | 13 | 355 | 0.0 | 4.8 | 0.00 | 0.38 | 0.00 | 82 | 1007.9 |
| 20260507043009 | 13 | 305 | 0.0 | 14.5 | 0.00 | 0.38 | 0.00 | 82 | 1008.2 |
| 20260507042509 | 13 | 325 | 0.0 | 14.5 | 0.00 | 0.38 | 0.00 | 82 | 1008.2 |
| 20260507042007 | 13 | 360 | 0.0 | 1.6 | 0.00 | 0.38 | 0.00 | 82 | 1008.2 |
| 20260507041506 | 13 | 326 | 0.0 | 0.0 | 0.00 | 0.38 | 0.00 | 81 | 1008.0 |
| 20260507041004 | 13 | 349 | 0.0 | 8.0 | 0.00 | 0.38 | 0.00 | 81 | 1007.6 |
| 20260507040504 | 13 | 342 | 0.0 | 14.5 | 0.00 | 0.38 | 0.00 | 81 | 1007.7 |
| 20260507040002 | 13 | 283 | 0.0 | 19.3 | 0.00 | 0.38 | 0.00 | 81 | 1007.8 |
| 20260507035502 | 13 | 302 | 0.0 | 19.3 | 0.00 | 0.38 | 0.38 | 81 | 1008.0 |
| 20260507035001 | 13 | 285 | 0.0 | 14.5 | 0.00 | 0.38 | 0.38 | 81 | 1008.2 |
| 20260507034501 | 13 | 274 | 0.0 | 16.1 | 0.00 | 0.38 | 0.38 | 81 | 1008.0 |
| 20260507034059 | 13 | 335 | 0.0 | 16.1 | 0.00 | 0.38 | 0.38 | 81 | 1007.8 |
| 20260507033559 | 13 | 296 | 0.0 | 12.9 | 0.00 | 0.38 | 0.38 | 81 | 1007.7 |
| 20260507033102 | 13 | 14 | 0.0 | 1.6 | 0.00 | 0.38 | 0.38 | 81 | 1007.1 |
| 20260507032557 | 14 | 17 | 0.0 | 4.8 | 0.00 | 0.38 | 0.38 | 81 | 1007.3 |
| 20260507032056 | 14 | 278 | 0.0 | 4.8 | 0.00 | 0.38 | 0.38 | 81 | 1007.4 |
| 20260507031556 | 14 | 304 | 0.0 | 1.6 | 0.00 | 0.38 | 0.38 | 81 | 1007.5 |
| 20260507031055 | 14 | 311 | 0.0 | 6.4 | 0.00 | 0.38 | 0.38 | 81 | 1007.5 |
| 20260507030555 | 14 | 284 | 0.0 | 6.4 | 0.00 | 0.38 | 0.38 | 81 | 1007.4 |
| 20260507030055 | 14 | 339 | 0.0 | 6.4 | 0.00 | 0.38 | 0.38 | 81 | 1007.5 |
| 20260507025558 | 14 | 307 | 0.0 | 8.0 | 0.00 | 0.38 | 0.38 | 81 | 1007.6 |
| 20260507025053 | 14 | 315 | 0.0 | 8.0 | 0.00 | 0.38 | 0.38 | 82 | 1007.4 |
| 20260507024552 | 15 | 335 | 0.0 | 3.2 | 0.00 | 0.38 | 0.38 | 82 | 1007.2 |
| 20260507024100 | 15 | 306 | 0.0 | 6.4 | 0.00 | 0.38 | 0.38 | 82 | 1006.9 |
| 20260507023555 | 15 | 340 | 0.0 | 6.4 | 0.00 | 0.38 | 0.38 | 82 | 1006.8 |
| 20260507023050 | 15 | 355 | 0.0 | 6.4 | 0.00 | 0.38 | 0.38 | 82 | 1006.8 |
| 20260507022550 | 15 | 15 | 0.0 | 1.6 | 0.00 | 0.38 | 0.38 | 82 | 1007.1 |
| 20260507022050 | 15 | 342 | 0.0 | 3.2 | 0.00 | 0.38 | 0.38 | 82 | 1007.0 |
| 20260507021558 | 15 | 28 | 0.0 | 3.2 | 0.00 | 0.38 | 0.38 | 82 | 1007.0 |
| 20260507021048 | 15 | 300 | 0.0 | 6.4 | 0.00 | 0.38 | 0.38 | 83 | 1006.8 |
| 20260507020549 | 15 | 313 | 0.0 | 6.4 | 0.00 | 0.38 | 0.38 | 83 | 1006.8 |
| 20260507020048 | 15 | 309 | 0.0 | 9.7 | 0.00 | 0.38 | 0.38 | 84 | 1006.9 |
| 20260507015548 | 16 | 323 | 0.0 | 1.6 | 0.00 | 0.38 | 0.38 | 85 | 1006.9 |
| 20260507015048 | 16 | 360 | 0.0 | 1.6 | 0.00 | 0.38 | 0.38 | 85 | 1006.8 |
| 20260507014548 | 16 | 328 | 0.0 | 1.6 | 0.00 | 0.38 | 0.38 | 85 | 1006.9 |
| 20260507014048 | 16 | 339 | 0.0 | 0.0 | 0.00 | 0.38 | 0.38 | 85 | 1006.9 |
| 20260507013547 | 16 | 355 | 0.0 | 0.0 | 0.00 | 0.38 | 0.38 | 86 | 1006.8 |
| 20260507013048 | 16 | 9 | 0.0 | 1.6 | 0.00 | 0.38 | 0.38 | 86 | 1006.6 |
| 20260507012552 | 16 | 288 | 0.0 | 1.6 | 0.00 | 0.38 | 0.38 | 86 | 1006.5 |
| 20260507012051 | 16 | 290 | 0.0 | 1.6 | 0.00 | 0.38 | 0.38 | 86 | 1006.6 |
| 20260507011550 | 16 | 340 | 0.0 | 1.6 | 0.00 | 0.38 | 0.38 | 86 | 1006.5 |
| 20260507011046 | 16 | 277 | 0.0 | 1.6 | 0.00 | 0.38 | 0.38 | 86 | 1006.6 |
| 20260507010546 | 17 | 323 | 0.0 | 0.0 | 0.00 | 0.38 | 0.38 | 86 | 1006.6 |
| 20260507010047 | 17 | 322 | 0.0 | 0.0 | 0.00 | 0.38 | 0.38 | 86 | 1006.7 |
| 20260507005547 | 17 | 273 | 0.0 | 1.6 | 0.00 | 0.38 | 0.38 | 85 | 1006.7 |